アトラス彗星

C/2018 A3 ( ATLAS )

English version
Home page
Updated on December 9, 2019

---------------------------------------------------------------------

・ プロフィール

発見日 2018年1月10日
発見光度 18.7等
発見者 Asteroid Terrestrial-impact Last Alert System (ATLAS) search program

・ 写真集

・ 軌道要素

Epoch 2018 Dec. 28.0 TT = JDT 2458480.5
T 2019 Jan. 12.86294 TT                                 Williams
q   3.2767187            (2000.0)            P               Q
z  +0.0020058      Peri.   86.42646     -0.24776864     +0.95551836
 +/-0.0000004      Node   194.27956     +0.40380039     +0.25195856
e   0.9934275      Incl.  139.56197     +0.88065654     +0.15330212
From 1315 observations 2018 Jan. 10-2019 Nov. 5, mean residual 0".5.

・ 星図

・ 光度変化

        m1 = 8.0 + 5 logΔ + 10.0 log r

---------------------------------------------------------------------

軌道要素はM.P.E.C. 2019-V116に掲載されたものです。
星図はステラナビゲータ Ver.10 (アストロアーツ) で作成したものです。
光度グラフはComet for Windowsで作成したものです。

---------------------------------------------------------------------

Copyright(C) Seiichi Yoshida (comet@aerith.net). All rights reserved.